This is the latest recevied weather packets stored in our database for station/object K8BCO. If no packets are shown the sender has not sent any weather packets the latest 10 day(s).
| Time | Temp. | Humidity | Pressure | Rain* | Wind** | Luminosity | Snow |
|---|---|---|---|---|---|---|---|
| 1777424718 | 7.22° C | 73% | 1013.8 hPa | 0 mm | - | 1 W/m² | - |
| 1777424119 | 7.22° C | 72% | 1013.6 hPa | 0 mm | - | 2 W/m² | - |
| 1777423518 | 7.22° C | 72% | 1013.4 hPa | 0 mm | - | 4 W/m² | - |
| 1777422918 | 7.22° C | 72% | 1013.4 hPa | 0 mm | - | 6 W/m² | - |
| 1777422316 | 7.22° C | 71% | 1013.3 hPa | 0 mm | - | 15 W/m² | - |
| 1777421717 | 7.22° C | 71% | 1013.1 hPa | 0 mm | - | 25 W/m² | - |
| 1777421116 | 7.22° C | 70% | 1013 hPa | 0 mm | - | 25 W/m² | - |
| 1777420516 | 7.78° C | 69% | 1012.9 hPa | 0 mm | - | 38 W/m² | - |
| 1777419917 | 7.78° C | 69% | 1012.8 hPa | 0 mm | - | 38 W/m² | - |
| 1777419317 | 7.78° C | 68% | 1012.8 hPa | 0 mm | - | 40 W/m² | - |
| 1777418717 | 7.78° C | 67% | 1012.6 hPa | 0 mm | - | 35 W/m² | - |
| 1777418117 | 7.78° C | 67% | 1012.6 hPa | 0 mm | - | 40 W/m² | - |
| 1777417517 | 7.78° C | 66% | 1012.5 hPa | 0 mm | - | 42 W/m² | - |
| 1777416918 | 7.78° C | 66% | 1012.3 hPa | 0 mm | - | 66 W/m² | - |
| 1777416317 | 7.78° C | 66% | 1012.1 hPa | 0 mm | - | 77 W/m² | - |
| 1777415718 | 7.78° C | 66% | 1011.8 hPa | 0 mm | - | 76 W/m² | - |
| 1777415118 | 7.78° C | 66% | 1011.7 hPa | 0 mm | - | 67 W/m² | - |
| 1777414518 | 7.78° C | 66% | 1011.5 hPa | 0 mm | - | 100 W/m² | - |
| 1777413918 | 7.78° C | 66% | 1011.4 hPa | 0 mm | - | 77 W/m² | - |
| 1777413318 | 7.78° C | 66% | 1011.2 hPa | 0 mm | - | 83 W/m² | - |
| 1777412718 | 7.78° C | 66% | 1011.1 hPa | 0 mm | - | 78 W/m² | - |
| 1777412116 | 7.78° C | 67% | 1010.8 hPa | 0 mm | - | 87 W/m² | - |
| 1777411516 | 7.78° C | 66% | 1010.6 hPa | 0 mm | - | 102 W/m² | - |
| 1777410916 | 7.78° C | 66% | 1010.4 hPa | 0 mm | - | 121 W/m² | - |
| 1777410318 | 8.33° C | 67% | 1010.1 hPa | 0 mm | - | 142 W/m² | - |
* Rain latest hour (hover to see other rain measurements)
** Current wind speed in m/s (hover to see current wind gust speed)